SWA2557 KPHL-KDEN

Flight info

Callsign SWA2557
Flight time N/A
Altitude 34000
Route PTW SARAA RAV PSB J60 TYSUN/N0456F360 J60 DJB CPONE JOT J60 IOW DSM OBH BRWRY LAWGR4
Aircraft B738/M-SDE2E3FGHIRWXY/LB1

Departure

Time N/A
Airport Philadelphia International Airport (KPHL)

Arrival

Time 2026-05-04 00:33
Airport Denver International Airport (KDEN)
Time Latitude Longitude Altitude Speed Heading
2026-05-03 21:24 41.16832 -80.18842 36021 ft 404 kts 278°
2026-05-03 21:24 41.17216 -80.22532 36020 ft 404 kts 278°
2026-05-03 21:24 41.17905 -80.29168 36012 ft 404 kts 278°
2026-05-03 21:25 41.18301 -80.32858 36013 ft 403 kts 279°
2026-05-03 21:25 41.19067 -80.40246 36004 ft 404 kts 278°
2026-05-03 21:26 41.19820 -80.47626 35997 ft 403 kts 278°
2026-05-03 21:26 41.20571 -80.54968 35985 ft 403 kts 278°
2026-05-03 21:27 41.21322 -80.62341 35975 ft 403 kts 278°
2026-05-03 21:27 41.22069 -80.69720 35983 ft 403 kts 278°
2026-05-03 21:28 41.22810 -80.77100 35981 ft 403 kts 278°
2026-05-03 21:28 41.23546 -80.84472 35988 ft 402 kts 278°
2026-05-03 21:29 41.24153 -80.90594 35988 ft 402 kts 278°
2026-05-03 21:29 41.25001 -80.99201 35989 ft 401 kts 278°
2026-05-03 21:30 41.25721 -81.06554 35984 ft 401 kts 278°
2026-05-03 21:30 41.26436 -81.13915 35982 ft 401 kts 278°
2026-05-03 21:31 41.27139 -81.21204 35984 ft 400 kts 278°
2026-05-03 21:31 41.27843 -81.28545 35978 ft 400 kts 278°
2026-05-03 21:32 41.28541 -81.35878 35985 ft 400 kts 278°
2026-05-03 21:32 41.29234 -81.43210 35983 ft 399 kts 278°
2026-05-03 21:33 41.29924 -81.50544 35987 ft 399 kts 278°
2026-05-03 21:33 41.30492 -81.56634 35972 ft 399 kts 278°
2026-05-03 21:34 41.31279 -81.65208 35971 ft 399 kts 278°
2026-05-03 21:34 41.31829 -81.71295 35971 ft 399 kts 278°
2026-05-03 21:35 41.32599 -81.79861 35962 ft 399 kts 278°
2026-05-03 21:35 41.33254 -81.87187 35962 ft 399 kts 277°
2026-05-03 21:36 41.33781 -81.93130 35961 ft 399 kts 277°
2026-05-03 21:36 41.34532 -82.01645 35983 ft 399 kts 277°
2026-05-03 21:37 41.35174 -82.08981 35982 ft 399 kts 277°
2026-05-03 21:37 41.35704 -82.15081 35979 ft 398 kts 277°
2026-05-03 21:38 41.36232 -82.22424 35982 ft 399 kts 275°
2026-05-03 21:38 41.36643 -82.29791 35983 ft 399 kts 275°
2026-05-03 21:39 41.37050 -82.37154 35978 ft 399 kts 275°
2026-05-03 21:39 41.37467 -82.44519 35981 ft 399 kts 275°
2026-05-03 21:40 41.37887 -82.51896 35981 ft 399 kts 275°
2026-05-03 21:40 41.38301 -82.59223 35964 ft 399 kts 275°
2026-05-03 21:41 41.38714 -82.66599 35960 ft 399 kts 275°
2026-05-03 21:41 41.39123 -82.73981 35948 ft 400 kts 275°
2026-05-03 21:42 41.39527 -82.81370 35952 ft 400 kts 275°
2026-05-03 21:42 41.39927 -82.88776 35947 ft 401 kts 275°
2026-05-03 21:43 41.40323 -82.96193 35948 ft 402 kts 275°
2026-05-03 21:43 41.40715 -83.03632 35953 ft 402 kts 275°
2026-05-03 21:44 41.41103 -83.11074 35958 ft 403 kts 275°
2026-05-03 21:44 41.41486 -83.18527 35962 ft 403 kts 275°
2026-05-03 21:45 41.41865 -83.25989 35965 ft 404 kts 275°
2026-05-03 21:45 41.42241 -83.33475 35961 ft 404 kts 275°
2026-05-03 21:46 41.42609 -83.40915 35965 ft 405 kts 275°
2026-05-03 21:46 41.42975 -83.48417 35961 ft 405 kts 275°
2026-05-03 21:47 41.43336 -83.55921 35957 ft 405 kts 275°
2026-05-03 21:47 41.43690 -83.63367 35963 ft 405 kts 275°
2026-05-03 21:48 41.44041 -83.70855 35946 ft 405 kts 275°
2026-05-03 21:48 41.44388 -83.78348 35948 ft 405 kts 275°
2026-05-03 21:49 41.44729 -83.85850 35951 ft 405 kts 275°
2026-05-03 21:49 41.45066 -83.93350 35948 ft 405 kts 274°
2026-05-03 21:50 41.45396 -84.00799 35946 ft 405 kts 274°
2026-05-03 21:50 41.45795 -84.08285 35940 ft 404 kts 275°
2026-05-03 21:51 41.46103 -84.15776 35940 ft 404 kts 274°
2026-05-03 21:51 41.46383 -84.23284 35951 ft 404 kts 274°
2026-05-03 21:52 41.46677 -84.30770 35967 ft 404 kts 274°
2026-05-03 21:52 41.46978 -84.38214 35962 ft 405 kts 274°
2026-05-03 21:53 41.47280 -84.45713 35971 ft 405 kts 274°
2026-05-03 21:53 41.47578 -84.53212 35964 ft 405 kts 274°
2026-05-03 21:54 41.47872 -84.60724 35965 ft 406 kts 274°
2026-05-03 21:54 41.48160 -84.68242 35970 ft 406 kts 274°
2026-05-03 21:55 41.48444 -84.75760 35962 ft 407 kts 274°
2026-05-03 21:55 41.48724 -84.83304 35962 ft 407 kts 274°
2026-05-03 21:56 41.48996 -84.90796 35960 ft 407 kts 274°
2026-05-03 21:56 41.49266 -84.98335 35955 ft 407 kts 274°
2026-05-03 21:57 41.49531 -85.05887 35956 ft 407 kts 274°
2026-05-03 21:57 41.49791 -85.13443 35952 ft 407 kts 274°
2026-05-03 21:58 41.50045 -85.20949 35957 ft 407 kts 274°
2026-05-03 21:58 41.50295 -85.28501 35959 ft 408 kts 274°
2026-05-03 21:59 41.50541 -85.36067 35958 ft 408 kts 274°
2026-05-03 21:59 41.50782 -85.43622 35954 ft 408 kts 274°
2026-05-03 22:00 41.51017 -85.51174 35947 ft 408 kts 274°
2026-05-03 22:00 41.51248 -85.58733 35941 ft 408 kts 274°
2026-05-03 22:01 41.51472 -85.66251 35935 ft 408 kts 274°
2026-05-03 22:01 41.51693 -85.73807 35926 ft 408 kts 274°
2026-05-03 22:02 41.51909 -85.81369 35929 ft 408 kts 274°
2026-05-03 22:02 41.52120 -85.88928 35941 ft 408 kts 274°
2026-05-03 22:03 41.52327 -85.96494 35947 ft 408 kts 274°
2026-05-03 22:03 41.52527 -86.04077 35943 ft 408 kts 274°
2026-05-03 22:04 41.52677 -86.11649 35933 ft 408 kts 273°
2026-05-03 22:04 41.52804 -86.19228 35935 ft 408 kts 273°
2026-05-03 22:05 41.52929 -86.26752 35934 ft 409 kts 273°
2026-05-03 22:05 41.53054 -86.34346 35933 ft 409 kts 274°
2026-05-03 22:06 41.53176 -86.41938 35928 ft 409 kts 274°
2026-05-03 22:06 41.53293 -86.49544 35922 ft 410 kts 274°
2026-05-03 22:07 41.53405 -86.57152 35903 ft 410 kts 273°
2026-05-03 22:07 41.53512 -86.64767 35895 ft 410 kts 274°
2026-05-03 22:08 41.53615 -86.72401 35895 ft 411 kts 274°
2026-05-03 22:08 41.53712 -86.80028 35899 ft 411 kts 273°
2026-05-03 22:09 41.53803 -86.87622 35898 ft 411 kts 273°
2026-05-03 22:10 41.53932 -86.99070 35885 ft 411 kts 273°
2026-05-03 22:10 41.54012 -87.06718 35888 ft 411 kts 273°
2026-05-03 22:11 41.54087 -87.14358 35886 ft 411 kts 273°
2026-05-03 22:11 41.54156 -87.21950 35868 ft 411 kts 273°
2026-05-03 22:12 41.54221 -87.29626 35852 ft 411 kts 273°
2026-05-03 22:12 41.54280 -87.37205 35849 ft 410 kts 273°
2026-05-03 22:13 41.54334 -87.44815 35857 ft 410 kts 273°
2026-05-03 22:13 41.54383 -87.52431 35862 ft 410 kts 273°
2026-05-03 22:14 41.54428 -87.60047 35859 ft 410 kts 273°
2026-05-03 22:14 41.54467 -87.67656 35857 ft 410 kts 273°
2026-05-03 22:15 41.54501 -87.75262 35859 ft 410 kts 273°
2026-05-03 22:15 41.54530 -87.82820 35842 ft 410 kts 273°
2026-05-03 22:16 41.54555 -87.90434 35833 ft 410 kts 273°
2026-05-03 22:16 41.54574 -87.98055 35834 ft 410 kts 273°
2026-05-03 22:17 41.54588 -88.05685 35831 ft 411 kts 273°
2026-05-03 22:17 41.54598 -88.13270 35834 ft 411 kts 273°
2026-05-03 22:18 41.54602 -88.20916 35830 ft 411 kts 273°
2026-05-03 22:18 41.54602 -88.28558 35837 ft 412 kts 273°
2026-05-03 22:19 41.54612 -88.36210 35828 ft 412 kts 274°
2026-05-03 22:19 41.54659 -88.43848 35839 ft 411 kts 274°
2026-05-03 22:20 41.54704 -88.51494 35822 ft 411 kts 274°
2026-05-03 22:20 41.54740 -88.59139 35827 ft 411 kts 274°
2026-05-03 22:21 41.54768 -88.66730 35823 ft 411 kts 274°
2026-05-03 22:21 41.54791 -88.74367 35829 ft 411 kts 274°
2026-05-03 22:22 41.54809 -88.82007 35828 ft 411 kts 274°
2026-05-03 22:22 41.54822 -88.89637 35829 ft 410 kts 274°
2026-05-03 22:23 41.54830 -88.97216 35828 ft 410 kts 274°
2026-05-03 22:23 41.54833 -89.04838 35825 ft 410 kts 274°
2026-05-03 22:24 41.54831 -89.12458 35824 ft 410 kts 274°
2026-05-03 22:24 41.54824 -89.20083 35823 ft 410 kts 274°
2026-05-03 22:25 41.54813 -89.27692 35822 ft 410 kts 274°
2026-05-03 22:25 41.54796 -89.35259 35822 ft 410 kts 273°
2026-05-03 22:26 41.54769 -89.42861 35812 ft 410 kts 273°
2026-05-03 22:26 41.54743 -89.49182 35810 ft 410 kts 273°
2026-05-03 22:27 41.54708 -89.56792 35811 ft 410 kts 273°
2026-05-03 22:27 41.54668 -89.64395 35804 ft 410 kts 273°
2026-05-03 22:28 41.54624 -89.72008 35809 ft 410 kts 273°
2026-05-03 22:28 41.54574 -89.79622 35807 ft 409 kts 273°
2026-05-03 22:29 41.54519 -89.87217 35809 ft 409 kts 273°
2026-05-03 22:29 41.54460 -89.94804 35811 ft 409 kts 273°
2026-05-03 22:30 41.54395 -90.02342 35771 ft 405 kts 273°
2026-05-03 22:30 41.54325 -90.09773 35799 ft 396 kts 273°
2026-05-03 22:31 41.54254 -90.17120 35806 ft 396 kts 273°
2026-05-03 22:31 41.54179 -90.24468 35799 ft 396 kts 273°
2026-05-03 22:32 41.54098 -90.31809 35800 ft 396 kts 273°
2026-05-03 22:32 41.54012 -90.39157 35803 ft 396 kts 273°
2026-05-03 22:33 41.53922 -90.46532 35795 ft 397 kts 273°
2026-05-03 22:33 41.53827 -90.53863 35796 ft 398 kts 273°
2026-05-03 22:34 41.53726 -90.61244 35798 ft 398 kts 273°
2026-05-03 22:34 41.53620 -90.68659 35793 ft 399 kts 273°
2026-05-03 22:35 41.53510 -90.76057 35796 ft 399 kts 273°
2026-05-03 22:35 41.53395 -90.83471 35801 ft 399 kts 273°
2026-05-03 22:36 41.53275 -90.90872 35811 ft 398 kts 273°
2026-05-03 22:36 41.53151 -90.98259 35811 ft 397 kts 273°
2026-05-03 22:37 41.53022 -91.05624 35815 ft 396 kts 273°
2026-05-03 22:37 41.52889 -91.12973 35810 ft 395 kts 273°
2026-05-03 22:38 41.52752 -91.20256 35815 ft 394 kts 273°
2026-05-03 22:38 41.52611 -91.27566 35813 ft 394 kts 273°
2026-05-03 22:39 41.52465 -91.34861 35811 ft 393 kts 272°
2026-05-03 22:39 41.52315 -91.42158 35808 ft 393 kts 273°
2026-05-03 22:40 41.52161 -91.49459 35803 ft 393 kts 272°
2026-05-03 22:40 41.52002 -91.56737 35808 ft 392 kts 272°
2026-05-03 22:41 41.51831 -91.63960 35807 ft 392 kts 272°
2026-05-03 22:41 41.51602 -91.71220 35807 ft 391 kts 272°
2026-05-03 22:42 41.51359 -91.78469 35809 ft 390 kts 272°
2026-05-03 22:42 41.51118 -91.85696 35810 ft 389 kts 272°
2026-05-03 22:43 41.50876 -91.92910 35824 ft 388 kts 272°
2026-05-03 22:43 41.50631 -92.00103 35811 ft 388 kts 272°
2026-05-03 22:44 41.50384 -92.07238 35821 ft 387 kts 272°
2026-05-03 22:44 41.50132 -92.14420 35813 ft 387 kts 272°
2026-05-03 22:45 41.49875 -92.21588 35824 ft 387 kts 272°
2026-05-03 22:45 41.49613 -92.28757 35825 ft 387 kts 272°
2026-05-03 22:46 41.49347 -92.35923 35828 ft 387 kts 272°
2026-05-03 22:46 41.49077 -92.43082 35834 ft 386 kts 272°
2026-05-03 22:47 41.48803 -92.50237 35834 ft 386 kts 272°
2026-05-03 22:47 41.48524 -92.57399 35842 ft 386 kts 272°
2026-05-03 22:48 41.48242 -92.64508 35837 ft 386 kts 272°
2026-05-03 22:48 41.47954 -92.71662 35845 ft 385 kts 272°
2026-05-03 22:49 41.47663 -92.78794 35847 ft 385 kts 272°
2026-05-03 22:49 41.47368 -92.85910 35850 ft 384 kts 272°
2026-05-03 22:50 41.47069 -92.93024 35849 ft 384 kts 272°
2026-05-03 22:50 41.46766 -93.00123 35852 ft 383 kts 272°
2026-05-03 22:51 41.46461 -93.07170 35850 ft 382 kts 272°
2026-05-03 22:51 41.46150 -93.14248 35847 ft 382 kts 272°
2026-05-03 22:52 41.45835 -93.21320 35843 ft 381 kts 272°
2026-05-03 22:52 41.45517 -93.28370 35847 ft 381 kts 272°
2026-05-03 22:53 41.45194 -93.35421 35845 ft 381 kts 272°
2026-05-03 22:53 41.44868 -93.42463 35845 ft 380 kts 271°
2026-05-03 22:54 41.44537 -93.49497 35846 ft 380 kts 271°
2026-05-03 22:54 41.44205 -93.56494 35848 ft 380 kts 271°
2026-05-03 22:55 41.43867 -93.63524 35850 ft 380 kts 271°
2026-05-03 22:55 41.43784 -93.70515 35848 ft 377 kts 275°
2026-05-03 22:56 41.43848 -93.77500 35841 ft 377 kts 275°
2026-05-03 22:56 41.43911 -93.84508 35845 ft 382 kts 277°
2026-05-03 22:57 41.43962 -93.91680 35864 ft 392 kts 277°
2026-05-03 22:57 41.44001 -93.99039 35869 ft 401 kts 276°
2026-05-03 22:58 41.44031 -94.06558 35863 ft 410 kts 276°
2026-05-03 22:58 41.44054 -94.14171 35854 ft 415 kts 276°
2026-05-03 22:59 41.44071 -94.21877 35859 ft 416 kts 276°
2026-05-03 22:59 41.44083 -94.29601 35862 ft 417 kts 276°
2026-05-03 23:00 41.44092 -94.37331 35863 ft 417 kts 276°
2026-05-03 23:00 41.44096 -94.45047 35865 ft 416 kts 276°
2026-05-03 23:01 41.44095 -94.52766 35863 ft 415 kts 276°
2026-05-03 23:01 41.44090 -94.59154 35864 ft 414 kts 276°
2026-05-03 23:02 41.44078 -94.68050 35858 ft 411 kts 276°
2026-05-03 23:02 41.44064 -94.75716 35871 ft 415 kts 276°
2026-05-03 23:03 41.44045 -94.83443 35878 ft 418 kts 276°
2026-05-03 23:03 41.44018 -94.91219 35884 ft 420 kts 276°
2026-05-03 23:04 41.43986 -94.98994 35873 ft 420 kts 276°
2026-05-03 23:04 41.43947 -95.06761 35873 ft 418 kts 276°
2026-05-03 23:05 41.43905 -95.14447 35873 ft 416 kts 276°
2026-05-03 23:05 41.43858 -95.22149 35874 ft 414 kts 276°
2026-05-03 23:06 41.43806 -95.29806 35874 ft 412 kts 275°
2026-05-03 23:06 41.43749 -95.37386 35874 ft 410 kts 275°
2026-05-03 23:07 41.43689 -95.44968 35878 ft 409 kts 275°
2026-05-03 23:07 41.43635 -95.51252 35879 ft 408 kts 275°
2026-05-03 23:08 41.43553 -95.60091 35873 ft 407 kts 275°
2026-05-03 23:08 41.43478 -95.67644 35871 ft 408 kts 275°
2026-05-03 23:09 41.43397 -95.75205 35868 ft 408 kts 275°
2026-05-03 23:09 41.43312 -95.82778 35869 ft 409 kts 275°
2026-05-03 23:10 41.43221 -95.90322 35868 ft 410 kts 275°
2026-05-03 23:10 41.43125 -95.97934 35876 ft 411 kts 275°
2026-05-03 23:11 41.43023 -96.05550 35880 ft 411 kts 275°
2026-05-03 23:11 41.42917 -96.13171 35873 ft 411 kts 274°
2026-05-03 23:12 41.42805 -96.20807 35877 ft 411 kts 274°
2026-05-03 23:12 41.42688 -96.28435 35875 ft 411 kts 274°
2026-05-03 23:13 41.42567 -96.35989 35884 ft 410 kts 274°
2026-05-03 23:13 41.42441 -96.43604 35885 ft 410 kts 274°
2026-05-03 23:14 41.42332 -96.49901 35886 ft 409 kts 274°
2026-05-03 23:14 41.42197 -96.57473 35889 ft 408 kts 274°
2026-05-03 23:15 41.42058 -96.65029 35888 ft 408 kts 274°
2026-05-03 23:15 41.41914 -96.72590 35883 ft 408 kts 274°
2026-05-03 23:16 41.41764 -96.80147 35883 ft 407 kts 274°
2026-05-03 23:16 41.41611 -96.87642 35890 ft 407 kts 274°
2026-05-03 23:17 41.41452 -96.95180 35892 ft 407 kts 273°
2026-05-03 23:17 41.41289 -97.02721 35894 ft 407 kts 273°
2026-05-03 23:18 41.41120 -97.10250 35891 ft 406 kts 273°
2026-05-03 23:18 41.40946 -97.17789 35892 ft 406 kts 273°
2026-05-03 23:19 41.40769 -97.25261 35898 ft 406 kts 273°
2026-05-03 23:19 41.40586 -97.32785 35895 ft 406 kts 273°
2026-05-03 23:20 41.40398 -97.40299 35901 ft 406 kts 272°
2026-05-03 23:20 41.40205 -97.47822 35897 ft 406 kts 272°
2026-05-03 23:21 41.40008 -97.55350 35900 ft 406 kts 272°
2026-05-03 23:21 41.39807 -97.62766 35909 ft 394 kts 271°
2026-05-03 23:21 41.39705 -97.66344 35892 ft 377 kts 271°
2026-05-03 23:22 41.39506 -97.73175 35898 ft 368 kts 271°
2026-05-03 23:22 41.39311 -97.80062 35905 ft 377 kts 271°
2026-05-03 23:23 41.39109 -97.87097 35902 ft 381 kts 271°
2026-05-03 23:23 41.38900 -97.94165 35899 ft 383 kts 270°
2026-05-03 23:24 41.38685 -98.01275 35899 ft 383 kts 270°
2026-05-03 23:24 41.38466 -98.08371 35897 ft 383 kts 270°
2026-05-03 23:25 41.38244 -98.15439 35898 ft 381 kts 270°
2026-05-03 23:25 41.38022 -98.22434 35891 ft 380 kts 270°
2026-05-03 23:26 41.37793 -98.29449 35892 ft 378 kts 270°
2026-05-03 23:26 41.37663 -98.32941 35648 ft 376 kts 268°
2026-05-03 23:26 41.37292 -98.36374 35402 ft 372 kts 262°
2026-05-03 23:27 41.36601 -98.39681 35135 ft 369 kts 257°
2026-05-03 23:27 41.35802 -98.42905 34890 ft 365 kts 257°
2026-05-03 23:27 41.35002 -98.46106 34651 ft 363 kts 257°
2026-05-03 23:27 41.34208 -98.49286 34403 ft 361 kts 257°
2026-05-03 23:28 41.33421 -98.52450 34160 ft 359 kts 257°
2026-05-03 23:28 41.32640 -98.55599 33921 ft 357 kts 257°
2026-05-03 23:28 41.31865 -98.58733 33647 ft 356 kts 257°
2026-05-03 23:28 41.31095 -98.61851 33368 ft 354 kts 257°
2026-05-03 23:29 41.30327 -98.64961 33096 ft 353 kts 257°
2026-05-03 23:29 41.29561 -98.68062 32834 ft 352 kts 257°
2026-05-03 23:29 41.28797 -98.71153 32560 ft 352 kts 257°
2026-05-03 23:29 41.28033 -98.74239 32293 ft 351 kts 257°
2026-05-03 23:30 41.27278 -98.77285 32040 ft 351 kts 257°
2026-05-03 23:30 41.26511 -98.80378 31940 ft 352 kts 257°
2026-05-03 23:30 41.24975 -98.86555 31894 ft 351 kts 257°
2026-05-03 23:31 41.23441 -98.92706 31894 ft 351 kts 257°
2026-05-03 23:31 41.21895 -98.98897 31900 ft 357 kts 257°
2026-05-03 23:32 41.20296 -99.05296 31900 ft 372 kts 256°
2026-05-03 23:32 41.18631 -99.11932 31896 ft 385 kts 256°
2026-05-03 23:33 41.16906 -99.18772 31888 ft 394 kts 256°
2026-05-03 23:33 41.15170 -99.25628 31881 ft 395 kts 256°
2026-05-03 23:34 41.13414 -99.32542 31883 ft 395 kts 256°
2026-05-03 23:34 41.11659 -99.39436 31881 ft 394 kts 256°
2026-05-03 23:35 41.09901 -99.46327 31879 ft 393 kts 256°
2026-05-03 23:35 41.08148 -99.53184 31879 ft 392 kts 256°
2026-05-03 23:36 41.06395 -99.60018 31882 ft 391 kts 255°
2026-05-03 23:36 41.04640 -99.66843 31890 ft 390 kts 256°
2026-05-03 23:37 41.02894 -99.73613 31887 ft 390 kts 255°
2026-05-03 23:37 41.01136 -99.80414 31889 ft 390 kts 255°
2026-05-03 23:38 40.99372 -99.87216 31888 ft 391 kts 255°
2026-05-03 23:38 40.97598 -99.94038 31890 ft 392 kts 255°
2026-05-03 23:39 40.95816 -100.00872 31886 ft 393 kts 255°
2026-05-03 23:39 40.94027 -100.07713 31883 ft 394 kts 255°
2026-05-03 23:40 40.92228 -100.14573 31879 ft 396 kts 255°
2026-05-03 23:40 40.90755 -100.20174 31872 ft 397 kts 255°
2026-05-03 23:41 40.89620 -100.24498 31872 ft 397 kts 255°
2026-05-03 23:41 40.87796 -100.31428 31869 ft 399 kts 255°
2026-05-03 23:42 40.85964 -100.38350 31868 ft 400 kts 255°
2026-05-03 23:42 40.84121 -100.45289 31875 ft 400 kts 255°
2026-05-03 23:43 40.82285 -100.52183 31872 ft 401 kts 255°
2026-05-03 23:43 40.80431 -100.59131 31871 ft 401 kts 255°
2026-05-03 23:44 40.78590 -100.66101 31867 ft 400 kts 257°
2026-05-03 23:44 40.77318 -100.73222 31871 ft 398 kts 261°
2026-05-03 23:45 40.76116 -100.80364 31867 ft 399 kts 261°
2026-05-03 23:45 40.74899 -100.87507 31875 ft 399 kts 261°
2026-05-03 23:46 40.73666 -100.94656 31871 ft 400 kts 261°
2026-05-03 23:46 40.72424 -101.01806 31876 ft 400 kts 261°
2026-05-03 23:47 40.71181 -101.08926 31872 ft 401 kts 260°
2026-05-03 23:47 40.70130 -101.14923 31873 ft 401 kts 260°
2026-05-03 23:48 40.68665 -101.23255 31875 ft 402 kts 260°
2026-05-03 23:48 40.67399 -101.30421 31884 ft 402 kts 260°
2026-05-03 23:49 40.66125 -101.37607 31888 ft 402 kts 260°
2026-05-03 23:49 40.64845 -101.44798 31894 ft 403 kts 260°
2026-05-03 23:50 40.63779 -101.50765 31906 ft 403 kts 260°
2026-05-03 23:50 40.62272 -101.59170 31910 ft 403 kts 260°
2026-05-03 23:51 40.60986 -101.66310 31910 ft 404 kts 260°
2026-05-03 23:51 40.59686 -101.73501 31911 ft 404 kts 260°
2026-05-03 23:52 40.58380 -101.80700 31902 ft 404 kts 259°
2026-05-03 23:52 40.57071 -101.87890 31887 ft 404 kts 259°
2026-05-03 23:53 40.55757 -101.95078 31880 ft 404 kts 259°
2026-05-03 23:53 40.54436 -102.02276 31872 ft 405 kts 259°
2026-05-03 23:54 40.53119 -102.09428 31854 ft 405 kts 259°
2026-05-03 23:54 40.51787 -102.16632 31866 ft 405 kts 259°
2026-05-03 23:55 40.51231 -102.19632 31852 ft 406 kts 259°
2026-05-03 23:55 40.49837 -102.27127 31850 ft 406 kts 259°
2026-05-03 23:56 40.48718 -102.33125 31860 ft 406 kts 259°
2026-05-03 23:56 40.47141 -102.41550 31847 ft 406 kts 259°
2026-05-03 23:57 40.45784 -102.48768 31851 ft 407 kts 259°
2026-05-03 23:57 40.44432 -102.55934 31858 ft 407 kts 259°
2026-05-03 23:58 40.43066 -102.63145 31849 ft 407 kts 259°
2026-05-03 23:58 40.42388 -102.66709 31835 ft 394 kts 259°
2026-05-03 23:58 40.41734 -102.70126 31831 ft 378 kts 259°
2026-05-03 23:59 40.40686 -102.75609 31849 ft 371 kts 259°
2026-05-03 23:59 40.40060 -102.78896 31703 ft 372 kts 259°
2026-05-03 23:59 40.39434 -102.82174 31447 ft 366 kts 260°
2026-05-04 00:00 40.38816 -102.85396 31060 ft 362 kts 260°
2026-05-04 00:00 40.38205 -102.88580 30690 ft 359 kts 260°
2026-05-04 00:00 40.37401 -102.92759 30197 ft 355 kts 260°
2026-05-04 00:00 40.36994 -102.94873 29941 ft 353 kts 260°
2026-05-04 00:01 40.36394 -102.97984 29504 ft 350 kts 260°
2026-05-04 00:01 40.35799 -103.01065 29105 ft 346 kts 260°
2026-05-04 00:01 40.35207 -103.04123 28714 ft 343 kts 260°
2026-05-04 00:01 40.34632 -103.07089 28337 ft 339 kts 259°
2026-05-04 00:02 40.34054 -103.10067 27969 ft 335 kts 259°
2026-05-04 00:02 40.33480 -103.13023 27580 ft 333 kts 259°
2026-05-04 00:02 40.32910 -103.15948 27212 ft 330 kts 259°
2026-05-04 00:02 40.32345 -103.18849 26840 ft 327 kts 259°
2026-05-04 00:03 40.31784 -103.21727 26472 ft 325 kts 259°
2026-05-04 00:03 40.31225 -103.24586 26107 ft 323 kts 258°
2026-05-04 00:03 40.30669 -103.27426 25742 ft 321 kts 258°
2026-05-04 00:03 40.30116 -103.30249 25384 ft 319 kts 258°
2026-05-04 00:04 40.29565 -103.33058 25021 ft 317 kts 258°
2026-05-04 00:04 40.29016 -103.35852 24557 ft 319 kts 258°
2026-05-04 00:04 40.28467 -103.38637 24283 ft 314 kts 258°
2026-05-04 00:04 40.27922 -103.41405 23921 ft 313 kts 257°
2026-05-04 00:05 40.27377 -103.44168 23572 ft 312 kts 257°
2026-05-04 00:05 40.26836 -103.46908 23171 ft 311 kts 257°
2026-05-04 00:05 40.26296 -103.49636 22772 ft 309 kts 257°
2026-05-04 00:05 40.25756 -103.52364 22279 ft 310 kts 257°
2026-05-04 00:06 40.25218 -103.55069 22002 ft 308 kts 257°
2026-05-04 00:06 40.24681 -103.57771 21769 ft 306 kts 257°
2026-05-04 00:06 40.24134 -103.60538 21557 ft 326 kts 257°
2026-05-04 00:06 40.23545 -103.63524 21307 ft 351 kts 256°
2026-05-04 00:07 40.22926 -103.66652 21019 ft 357 kts 256°
2026-05-04 00:07 40.22300 -103.69802 20729 ft 357 kts 256°
2026-05-04 00:07 40.21685 -103.72891 20457 ft 355 kts 256°
2026-05-04 00:07 40.21065 -103.76008 20187 ft 353 kts 256°
2026-05-04 00:08 40.20445 -103.79114 19914 ft 352 kts 256°
2026-05-04 00:08 40.19831 -103.82196 19643 ft 347 kts 256°
2026-05-04 00:08 40.19226 -103.85218 19373 ft 340 kts 256°
2026-05-04 00:08 40.18633 -103.88179 19109 ft 333 kts 256°
2026-05-04 00:09 40.17991 -103.91060 18836 ft 328 kts 249°
2026-05-04 00:09 40.16911 -103.93663 18552 ft 324 kts 240°
2026-05-04 00:09 40.15719 -103.96139 18259 ft 320 kts 239°
2026-05-04 00:09 40.14529 -103.98577 17938 ft 316 kts 239°
2026-05-04 00:10 40.13359 -104.00992 17623 ft 313 kts 239°
2026-05-04 00:10 40.12210 -104.03387 17313 ft 309 kts 240°
2026-05-04 00:10 40.11077 -104.05765 17022 ft 307 kts 240°
2026-05-04 00:10 40.09955 -104.08131 16730 ft 305 kts 240°
2026-05-04 00:11 40.08843 -104.10479 16446 ft 303 kts 240°
2026-05-04 00:11 40.07737 -104.12813 16174 ft 303 kts 240°
2026-05-04 00:11 40.06625 -104.15155 15894 ft 304 kts 240°
2026-05-04 00:11 40.05509 -104.17502 15632 ft 305 kts 240°
2026-05-04 00:12 40.04386 -104.19861 15353 ft 305 kts 240°
2026-05-04 00:12 40.03268 -104.22211 15089 ft 306 kts 240°
2026-05-04 00:12 40.02142 -104.24577 14831 ft 308 kts 240°
2026-05-04 00:12 40.01009 -104.26954 14565 ft 309 kts 240°
2026-05-04 00:13 39.99878 -104.29325 14302 ft 306 kts 240°
2026-05-04 00:13 39.98772 -104.31642 14043 ft 303 kts 240°
2026-05-04 00:13 39.97667 -104.33957 13786 ft 300 kts 240°
2026-05-04 00:13 39.96570 -104.36252 13516 ft 297 kts 240°
2026-05-04 00:14 39.95477 -104.38537 13239 ft 295 kts 240°
2026-05-04 00:14 39.94396 -104.40795 12980 ft 293 kts 240°
2026-05-04 00:14 39.93320 -104.43044 12755 ft 291 kts 240°
2026-05-04 00:14 39.92249 -104.45286 12536 ft 291 kts 240°
2026-05-04 00:15 39.91158 -104.47514 12315 ft 292 kts 234°
2026-05-04 00:15 39.89618 -104.49220 12083 ft 293 kts 210°
2026-05-04 00:15 39.87685 -104.50003 11881 ft 292 kts 189°
2026-05-04 00:15 39.85667 -104.50124 11710 ft 288 kts 182°
2026-05-04 00:16 39.83683 -104.50107 11514 ft 284 kts 182°
2026-05-04 00:16 39.81707 -104.50100 11241 ft 283 kts 182°
2026-05-04 00:16 39.79745 -104.50110 11057 ft 279 kts 182°
2026-05-04 00:16 39.77836 -104.50118 11004 ft 268 kts 182°
2026-05-04 00:17 39.76008 -104.50078 10984 ft 258 kts 181°
2026-05-04 00:17 39.74240 -104.49993 11002 ft 256 kts 180°
2026-05-04 00:17 39.72462 -104.49931 10993 ft 255 kts 187°
2026-05-04 00:17 39.70728 -104.50283 11009 ft 251 kts 195°
2026-05-04 00:18 39.69027 -104.50785 11004 ft 251 kts 196°
2026-05-04 00:18 39.67312 -104.51296 10989 ft 252 kts 196°
2026-05-04 00:18 39.65624 -104.51776 10993 ft 242 kts 195°
2026-05-04 00:18 39.64035 -104.52207 10959 ft 225 kts 195°
2026-05-04 00:19 39.62553 -104.52566 10935 ft 210 kts 189°
2026-05-04 00:19 39.61091 -104.52562 10951 ft 211 kts 178°
2026-05-04 00:19 39.59631 -104.52337 10950 ft 212 kts 175°
2026-05-04 00:19 39.58182 -104.52089 10939 ft 213 kts 175°
2026-05-04 00:20 39.56711 -104.51833 10912 ft 213 kts 175°
2026-05-04 00:20 39.55251 -104.51576 10915 ft 211 kts 175°
2026-05-04 00:20 39.53793 -104.51319 10889 ft 211 kts 175°
2026-05-04 00:20 39.52343 -104.51057 10888 ft 210 kts 175°
2026-05-04 00:21 39.50898 -104.50843 10873 ft 207 kts 183°
2026-05-04 00:21 39.49618 -104.51421 10887 ft 191 kts 230°
2026-05-04 00:21 39.48767 -104.52771 10905 ft 199 kts 235°
2026-05-04 00:21 39.47769 -104.54036 10909 ft 203 kts 220°
2026-05-04 00:22 39.46548 -104.54959 10898 ft 205 kts 206°
2026-05-04 00:22 39.45197 -104.55480 10880 ft 205 kts 192°
2026-05-04 00:22 39.43831 -104.55863 10728 ft 197 kts 203°
2026-05-04 00:22 39.42621 -104.56675 10351 ft 195 kts 225°
2026-05-04 00:23 39.41899 -104.58066 10166 ft 182 kts 256°
2026-05-04 00:23 39.41845 -104.59672 9835 ft 180 kts 287°
2026-05-04 00:23 39.42461 -104.61043 9507 ft 178 kts 317°
2026-05-04 00:23 39.43553 -104.61768 9212 ft 179 kts 346°
2026-05-04 00:24 39.44767 -104.62051 8945 ft 176 kts 347°
2026-05-04 00:24 39.45983 -104.62344 8629 ft 176 kts 345°
2026-05-04 00:24 39.47017 -104.63088 8275 ft 177 kts 314°
2026-05-04 00:24 39.47904 -104.64186 8078 ft 171 kts 320°
2026-05-04 00:25 39.48830 -104.65092 7904 ft 164 kts 325°
2026-05-04 00:25 39.49740 -104.65961 7544 ft 165 kts 321°
2026-05-04 00:25 39.50662 -104.66805 7226 ft 158 kts 336°
2026-05-04 00:25 39.51715 -104.66952 7201 ft 153 kts
2026-05-04 00:26 39.52788 -104.66686 7705 ft 162 kts
2026-05-04 00:26 39.53922 -104.66540 8199 ft 171 kts
2026-05-04 00:26 39.55155 -104.66405 8599 ft 179 kts 360°
2026-05-04 00:26 39.56392 -104.66381 8941 ft 179 kts 358°
2026-05-04 00:27 39.57663 -104.66333 9233 ft 187 kts 359°
2026-05-04 00:27 39.58977 -104.66320 9551 ft 191 kts 357°
2026-05-04 00:27 39.60334 -104.66319 9672 ft 198 kts 357°
2026-05-04 00:27 39.61660 -104.66308 9465 ft 187 kts 357°
2026-05-04 00:28 39.62926 -104.66293 9243 ft 176 kts 358°
2026-05-04 00:28 39.64121 -104.66280 9018 ft 168 kts 358°
2026-05-04 00:28 39.65277 -104.66265 8787 ft 165 kts 357°
2026-05-04 00:28 39.66427 -104.66251 8599 ft 168 kts 357°
2026-05-04 00:29 39.67593 -104.66237 8372 ft 166 kts 357°
2026-05-04 00:29 39.68751 -104.66223 8154 ft 166 kts 357°
2026-05-04 00:29 39.69899 -104.65914 7829 ft 173 kts 21°
2026-05-04 00:29 39.71046 -104.65512 7555 ft 165 kts 14°
2026-05-04 00:30 39.72205 -104.65407 7487 ft 166 kts 350°
2026-05-04 00:30 39.73318 -104.65712 7392 ft 166 kts 343°
2026-05-04 00:30 39.74438 -104.66022 7285 ft 162 kts 346°
2026-05-04 00:30 39.75602 -104.66166 7212 ft 171 kts 356°
2026-05-04 00:31 39.76796 -104.66121 7019 ft 174 kts
2026-05-04 00:31 39.77994 -104.66054 6736 ft 166 kts 356°
2026-05-04 00:31 39.79143 -104.66112 6319 ft 165 kts 356°
2026-05-04 00:31 39.80240 -104.66097 6061 ft 152 kts 359°
2026-05-04 00:32 39.81265 -104.66064 5872 ft 143 kts 358°
2026-05-04 00:32 39.82247 -104.66059 5613 ft 139 kts 357°
2026-05-04 00:32 39.83178 -104.66049 5439 ft 126 kts 360°
2026-05-04 00:32 39.83847 -104.66046 5411 ft 62 kts
2026-05-04 00:33 39.84090 -104.66040 5414 ft 28 kts 359°
2026-05-04 00:33 39.84525 -104.66039 5414 ft 34 kts 360°
2026-05-04 00:33 39.84754 -104.66086 5402 ft 33 kts 345°
2026-05-04 00:34 39.84873 -104.66132 5402 ft 11 kts 334°
2026-05-04 00:34 39.84898 -104.66151 5398 ft 11 kts 330°
2026-05-04 00:34 39.85020 -104.66231 5396 ft 26 kts 341°
2026-05-04 00:34 39.85205 -104.66243 5395 ft 28 kts
2026-05-04 00:35 39.85408 -104.66236 5392 ft 29 kts
2026-05-04 00:35 39.85602 -104.66242 5391 ft 27 kts
2026-05-04 00:35 39.85783 -104.66235 5390 ft 25 kts
2026-05-04 00:35 39.85805 -104.66235 5393 ft 0 kts
2026-05-04 00:36 39.85806 -104.66235 5389 ft 2 kts
2026-05-04 00:36 39.85891 -104.66233 5392 ft 23 kts
2026-05-04 00:36 39.86039 -104.66231 5388 ft 20 kts 360°
2026-05-04 00:36 39.86112 -104.66320 5387 ft 14 kts 272°
2026-05-04 00:37 39.86107 -104.66459 5386 ft 12 kts 275°
2026-05-04 00:37 39.86114 -104.66504 5386 ft 5 kts 271°
2026-05-04 00:37 39.86152 -104.66582 5386 ft 12 kts 343°
2026-05-04 00:37 39.86240 -104.66564 5386 ft 15 kts
2026-05-04 00:38 39.86353 -104.66574 5386 ft 18 kts
2026-05-04 00:38 39.86408 -104.66624 5386 ft 8 kts 279°
2026-05-04 00:38 39.86409 -104.66696 5386 ft 8 kts 270°
2026-05-04 00:38 39.86409 -104.66766 5386 ft 8 kts 270°
2026-05-04 00:39 39.86410 -104.66849 5386 ft 12 kts 270°
2026-05-04 00:39 39.86409 -104.66966 5386 ft 9 kts 259°
2026-05-04 00:39 39.86356 -104.66991 5386 ft 2 kts 174°
2026-05-04 00:39 39.86349 -104.66990 5386 ft 0 kts 172°